Find Starlink 30290

NORAD ID: 57858 Int'l Des: 2023-141 Owner: SPXS Country: US Constellation: starlink operational
LEOCIRCULAR

当前视图

正在加载3D地球...

About Starlink 30290

Starlink 30290 (NORAD 57858) is a starlink constellation satellite (v2 mini) launched Sep 12, 2023 by SPXS of US. It operates in LEO, CIRCULAR orbit with a mass of 730.00 kg.

即将过境

Passes for default location (London). Set your location on the main map for personalized predictions.

高度历史

Loading altitude history...

两行轨道根数

1 57858U 23141U 26263.92496061 .00000281 00000-0 19443-4 0 9996
2 57858 53.1607 95.5564 0001057 74.8760 285.2359 15.34389896170240
Epoch: Sep 20, 2026 • Age: 24 hours

当前状态

高度 468.6 km
远地点 / 近地点 N/A
速度 7.64 km/s
星下点 53.21°N, 155.24°W
发射日期 Sep 12, 2023
运行时间 3 years
类型 internet

技术详情

分类 Payload
质量 730.00 kg
干质量 700.00 kg
长度 0.30 m
跨度 29.00 m
形状 ? Box + pan
制造商 SPXS
平台类型 Starlink V2M
阶段状态 In Orbit
所有者/国家 SPXS/US

Most Searched